Regional Weather Roundup
Issued by NWS

Home | Current Version | Previous Version | Text Only | Print | Product List | Glossary Off
Versions: 1 2 3 4 5 6 7 8 9 10 11 12 13 14 15 16 17 18 19 20 21 22 23 24 25 26 27 28 29 30 31 32 33 34 35 36 37 38 39 40 41 42 43 44 45 46 47 48 49 50

000
ASUS43 KLOT 272303
RWRIL

ILLINOIS REGIONAL WEATHER ROUNDUP
NATIONAL WEATHER SERVICE CHICAGO/ROMEOVILLE IL
600 PM CDT MON MAR 27 2017

NOTE: "FAIR" INDICATES FEW OR NO CLOUDS BELOW 12,000 FEET WITH NO
SIGNIFICANT WEATHER AND/OR OBSTRUCTIONS TO VISIBILITY.

* THESE STATIONS ARE NOT UNDER NWS QUALITY CONTROL. THEY ALSO MAY NOT
  REPORT WEATHER SUCH AS PRECIPITATION OR FOG.

ILZ001-002-007-009-015-016-024-280000-
NORTHWEST ILLINOIS

CITY           SKY/WX    TMP DP  RH WIND       PRES   REMARKS
MOLINE         CLOUDY    53  45  74 N8        29.89S
STERLING*      CLOUDY    52  47  83 N6        29.90S
SAVANNA*       CLOUDY    50  46  85 N7        29.91S
$$

ILZ003-004-008-010-011-017-018-280000-
NORTH CENTRAL ILLINOIS

CITY           SKY/WX    TMP DP  RH WIND       PRES   REMARKS
ROCKFORD       CLOUDY    52  44  74 N8        29.93S
FREEPORT*      CLOUDY    49  45  84 CALM      29.93S
ROCHELLE*      CLOUDY    51  47  87 N7        29.90S
DE KALB*       CLOUDY    50  48  94 CALM      29.90S FOG
$$

ILZ005-006-012>014-019>023-280000-
NORTHEAST ILLINOIS

CITY           SKY/WX    TMP DP  RH WIND       PRES   REMARKS
CHICAGO-OHARE  CLOUDY    46  41  82 NE9       29.90S
CHICAGO-MIDWAY CLOUDY    44  41  89 NE9       29.91S
AURORA         CLOUDY    50  48  93 NE7       29.89S FOG
LANSING*       CLOUDY    42  42  99 NE12      29.91S FOG
WAUKEGAN       CLOUDY    42  39  89 NE8       29.92S
DUPAGE AIRPORT CLOUDY    49  46  90 E8        29.89S
WHEELING       CLOUDY    43  41  93 NE8       29.93R
MORRIS*        CLOUDY    52  48  87 CALM      29.88S FOG
NORTHERLY ISL    N/A     40  39  97 N7          N/A
$$

LMZ740>746-280000-
SOUTHERN LAKE MICHIGAN

STATION/POSITION SKY/WX   TEMP    WIND        PRES    VSBY  WAVE
                          AIR SEA DIR/SP/G                  HT/PER
                          (F)     (DEG/KT/KT) (MB)    (MI)  (FT/S)
HARRISON CRIB              39     360/  7/  7   N/A
BURNHAM HARBOR             40     360/  7/ 10   N/A
CALUMET HARBOR             40     350/  9/ 11 1012.7R
BURNS HARBOR               40      50/ 11/ 13 1013.5R
MICHIGAN CITY              38      30/ 13/ 14   N/A
$$

ILZ025>027-034>036-040-047-049-050-058-095>099-280000-
WEST-CENTRAL ILLINOIS

CITY           SKY/WX    TMP DP  RH WIND       PRES   REMARKS
QUINCY         CLOUDY    54  51  90 N13       29.88R
GALESBURG*     CLOUDY    52  49  89 N10       29.89R
MACOMB*        CLOUDY    53  50  90 N8        29.90S
PITTSFIELD*    CLOUDY    56  53  91 NW9       29.88R
$$

ILZ028>032-037-038-041>044-048-051>054-059>061-280000-
CENTRAL ILLINOIS

CITY           SKY/WX    TMP DP  RH WIND       PRES   REMARKS
PONTIAC        CLOUDY    55  55  97 N8        29.87S
BLOOMINGTON    CLOUDY    54  52  93 N12       29.86R
DECATUR        CLOUDY    56  53  90 NE8       29.83R
PEORIA         CLOUDY    54  51  90 N8        29.87R
SPRINGFIELD    CLOUDY    57  53  86 N8        29.85R
TAYLORVILLE    NOT AVBL
$$

ILZ033-039-045-046-055>057-062-063-280000-
EAST-CENTRAL ILLINOIS

CITY           SKY/WX    TMP DP  RH WIND       PRES   REMARKS
CHAMPAIGN      CLOUDY    57  53  86 E8        29.82F
RANTOUL*       DRIZZLE   59  55  84 NE8       29.83S
MATTOON        CLOUDY    56  55  97 NE12      29.79S
PARIS*         CLOUDY    56  54  93 NE7       29.81S
$$

ILZ079-100>102-280000-
SOUTHWEST ILLINOIS

CITY           SKY/WX    TMP DP  RH WIND       PRES   REMARKS
ALTON          CLOUDY    55  52  88 NW6       29.84R
BELLEVILLE     CLOUDY    57  57  99 NW12      29.81R
CAHOKIA*       CLOUDY    57  52  83 NW12      29.83R
SPARTA*        CLOUDY    57  52  82 NW9       29.82R
$$

ILZ064>066-069>071-074>076-080>082-084>086-088>090-092>094-280000-
SOUTH-CENTRAL ILLINOIS

CITY           SKY/WX    TMP DP  RH WIND       PRES   REMARKS
CARBONDALE     CLOUDY    63  56  78 W7        29.80R
CAIRO*         CLOUDY    63  57  81 CALM      29.81R
EFFINGHAM*     CLOUDY    60  56  85 SW8       29.79S
MARION         CLOUDY    66  57  72 SW6       29.81R
MT. VERNON     CLOUDY    62  54  74 W10G18    29.78S
CENTRALIA*     CLOUDY    58  54  85 W12       29.79S
SALEM*         CLOUDY    58  53  83 W8        29.79S
$$

ILZ067-068-072-073-078-083-087-091-280000-
SOUTHEAST ILLINOIS

CITY           SKY/WX    TMP DP  RH WIND       PRES   REMARKS
LAWRENCEVILLE  CLOUDY    62  57  83 S9        29.78F
FLORA*         CLOUDY    64  55  70 SW8       29.78S
FAIRFIELD*     CLOUDY    64  55  73 SW3       29.77F
HARRISBURG*    CLOUDY    63  57  79 SW6       29.80S
ROBINSON*      CLOUDY    62  57  85 E7        29.78F
CARMI*         CLOUDY    62  57  84 SW7       29.79S
$$

ABBREVIATIONS USED IN REMARKS
   TC - TEMPERATURE IN CELSIUS
  WCI - WIND CHILL INDEX
   HX - HEAT INDEX
  VSB - VISIBILITY
$$




USA.gov is the U.S. government's official web portal to all federal, state and local government web resources and services.